{"data":{"norad_id":68061,"epoch":"2026-09-20T04:17:35.556864Z","epoch_age_seconds":87402,"freshness":"FRESH","line1":"1 68061U 26041X   26263.17888376 -.00003769  00000+0 -10050-3 0  9996","line2":"2 68061  53.1555 220.9360 0000677  44.6387 315.4670 15.34396745 31244","mean_motion":15.34396745,"eccentricity":6.77e-5,"inclination_deg":53.1555,"raan_deg":220.936,"arg_perigee_deg":44.6387,"mean_anomaly_deg":315.467,"bstar":-0.0001005,"rev_number":3124,"period_min":93.847957165733,"perigee_km":462.24978923094,"apogee_km":463.1760403094,"semimajor_km":6840.8499147702,"source":"CELESTRAK","updated_at":"2026-09-20T09:00:43.751293Z"}}